Location: Az?znagar
(16.8373°N, 80.5091°E)
Time: 16:55:07
(UTC+00:00)

Cosmos 1867 - Pass Details

Date: 04 December 2021
Orbit: 773 x 802 km, 65.0° (Epoch: 17 January)

Event Time Altitude Azimuth Distance (km) Brightness Sun altitude
Exits shadow 23:58:48 - 339° (NNW) 2,900 6.1 -12.9°
Reaches altitude 10° 00:00:12 10° 340° (NNW) 2,366 5.7 -12.5°
Maximum altitude 00:05:38 78° 66° (ENE) 813 3.7 -11.3°
Drops below altitude 10° 00:11:02 10° 153° (SSE) 2,344 6.8 -10.1°
Sets 00:13:26 0° 155° (SSE) 3,267 7.5 -9.6°
